QPF
0.00 0.00 0.00 0.00 0.00 0.00 0.00 0.00 0.00 0.00 0.00 0.00 0.00 0.00 0.00 0.00 0.00 0.00 0.00 0.00 0.00 0.00 0.00 0.01 0.03 0.03 0.02 0.02 0.02 0.02 0.02 0.02 0.02 0.02 0.02 0.02 0.02 0.02 0.01 0.01 0.01 0.01 0.02 0.02 0.02 0.02 0.02 0.02 0.01
0.00 0.00 0.00 0.00 0.00 0.00 0.00 0.00 0.00 0.00 0.00 0.00 0.00 0.00 0.00 0.00 0.00 0.00 0.00 0.00 0.00 0.00 0.00 0.01 0.03 0.03 0.03 0.03 0.03 0.03 0.03 0.03 0.03 0.03 0.03 0.03 0.03 0.03 0.03 0.02 0.02 0.02 0.02 0.02 0.02 0.01 0.01 0.01 0.01
0.00 0.00 0.01 0.01 0.00 0.00 0.00 0.00 0.00 0.00 0.00 0.00 0.00 0.00 0.00 0.00 0.00 0.00 0.00 0.00 0.00 0.00 0.01 0.02 0.04 0.04 0.04 0.04 0.03 0.04 0.04 0.05 0.05 0.06 0.05 0.05 0.05 0.04 0.04 0.04 0.03 0.02 0.01 0.01 0.01 0.01 0.00 0.00 0.00
0.00 0.00 0.01 0.01 0.00 0.00 0.00 0.00 0.00 0.00 0.00 0.00 0.00 0.00 0.00 0.00 0.00 0.00 0.00 0.00 0.01 0.01 0.01 0.02 0.04 0.05 0.05 0.05 0.04 0.04 0.04 0.05 0.07 0.08 0.07 0.07 0.07 0.05 0.04 0.04 0.04 0.03 0.02 0.01 0.01 0.01 0.00 0.00 0.01
0.00 0.00 0.01 0.01 0.00 0.00 0.00 0.00 0.00 0.00 0.00 0.00 0.00 0.00 0.00 0.00 0.00 0.00 0.00 0.00 0.00 0.01 0.02 0.03 0.04 0.06 0.06 0.06 0.06 0.05 0.05 0.05 0.07 0.09 0.09 0.09 0.08 0.07 0.06 0.05 0.05 0.04 0.03 0.02 0.01 0.01 0.00 0.00 0.01
0.00 0.00 0.01 0.00 0.00 0.00 0.00 0.00 0.00 0.00 0.00 0.00 0.00 0.00 0.00 0.00 0.00 0.00 0.00 0.00 0.00 0.01 0.03 0.03 0.05 0.06 0.07 0.07 0.07 0.06 0.06 0.07 0.07 0.09 0.10 0.11 0.11 0.09 0.07 0.06 0.06 0.04 0.03 0.02 0.01 0.00 0.00 0.00 0.01
0.00 0.01 0.00 0.00 0.00 0.00 0.00 0.00 0.00 0.00 0.00 0.00 0.00 0.00 0.00 0.00 0.00 0.00 0.00 0.00 0.01 0.02 0.03 0.04 0.05 0.07 0.08 0.08 0.07 0.06 0.06 0.08 0.09 0.10 0.10 0.11 0.12 0.12 0.10 0.09 0.08 0.06 0.05 0.04 0.01 0.00 0.00 0.01 0.01
0.00 0.01 0.01 0.00 0.00 0.00 0.00 0.00 0.00 0.00 0.00 0.00 0.00 0.00 0.00 0.00 0.00 0.01 0.01 0.01 0.01 0.03 0.04 0.05 0.06 0.07 0.08 0.08 0.08 0.07 0.06 0.07 0.08 0.10 0.11 0.10 0.10 0.12 0.13 0.12 0.11 0.09 0.07 0.06 0.02 0.01 0.01 0.01 0.01
0.01 0.01 0.01 0.00 0.00 0.01 0.00 0.00 0.00 0.00 0.00 0.00 0.00 0.00 0.00 0.00 0.00 0.01 0.02 0.03 0.03 0.04 0.05 0.06 0.08 0.08 0.08 0.09 0.09 0.08 0.07 0.07 0.08 0.09 0.10 0.11 0.11 0.12 0.13 0.13 0.12 0.11 0.09 0.08 0.05 0.02 0.01 0.01 0.01
0.01 0.00 0.00 0.00 0.00 0.01 0.01 0.01 0.01 0.00 0.00 0.00 0.00 0.00 0.00 0.00 0.01 0.01 0.03 0.03 0.04 0.05 0.06 0.07 0.08 0.09 0.09 0.09 0.10 0.10 0.08 0.07 0.07 0.07 0.09 0.10 0.10 0.11 0.13 0.14 0.13 0.12 0.11 0.10 0.08 0.04 0.02 0.01 0.00
0.00 0.00 0.00 0.00 0.00 0.01 0.01 0.01 0.01 0.00 0.00 0.00 0.00 0.00 0.00 0.00 0.01 0.01 0.02 0.03 0.04 0.05 0.07 0.07 0.08 0.09 0.10 0.09 0.10 0.10 0.09 0.08 0.06 0.06 0.07 0.08 0.10 0.11 0.12 0.14 0.15 0.15 0.13 0.11 0.09 0.06 0.03 0.01 0.00
0.00 0.00 0.00 0.00 0.00 0.00 0.01 0.01 0.01 0.01 0.00 0.00 0.00 0.00 0.00 0.00 0.01 0.01 0.02 0.03 0.04 0.05 0.07 0.08 0.09 0.10 0.11 0.10 0.10 0.11 0.09 0.07 0.06 0.06 0.05 0.06 0.07 0.10 0.11 0.12 0.13 0.15 0.14 0.12 0.09 0.06 0.03 0.02 0.01
0.00 0.00 0.00 0.00 0.00 0.00 0.00 0.00 0.00 0.00 0.00 0.01 0.00 0.00 0.01 0.01 0.01 0.01 0.02 0.03 0.04 0.05 0.07 0.08 0.10 0.10 0.11 0.12 0.10 0.10 0.09 0.07 0.05 0.05 0.06 0.05 0.05 0.07 0.09 0.12 0.14 0.14 0.14 0.13 0.10 0.06 0.03 0.02 0.01
0.00 0.00 0.00 0.00 0.00 0.00 0.00 0.00 0.00 0.00 0.01 0.01 0.01 0.01 0.01 0.01 0.01 0.01 0.02 0.03 0.04 0.05 0.07 0.09 0.11 0.11 0.10 0.11 0.10 0.10 0.09 0.09 0.07 0.05 0.05 0.06 0.06 0.06 0.08 0.11 0.12 0.13 0.14 0.14 0.12 0.09 0.05 0.02 0.01
0.00 0.01 0.01 0.01 0.00 0.00 0.00 0.00 0.00 0.00 0.02 0.02 0.01 0.01 0.01 0.01 0.02 0.02 0.02 0.02 0.04 0.05 0.07 0.09 0.11 0.12 0.10 0.10 0.10 0.09 0.09 0.09 0.07 0.06 0.05 0.05 0.06 0.06 0.08 0.11 0.12 0.13 0.13 0.14 0.13 0.11 0.09 0.05 0.02
0.01 0.01 0.01 0.01 0.00 0.00 0.01 0.01 0.00 0.01 0.03 0.04 0.02 0.02 0.02 0.02 0.03 0.03 0.03 0.03 0.03 0.04 0.07 0.10 0.10 0.11 0.10 0.10 0.11 0.09 0.09 0.09 0.08 0.06 0.05 0.04 0.05 0.05 0.07 0.10 0.13 0.15 0.17 0.17 0.15 0.11 0.09 0.07 0.04
0.02 0.02 0.02 0.01 0.01 0.01 0.01 0.01 0.01 0.01 0.02 0.04 0.03 0.03 0.04 0.04 0.04 0.04 0.03 0.03 0.03 0.03 0.06 0.10 0.11 0.10 0.11 0.10 0.10 0.10 0.09 0.08 0.08 0.07 0.05 0.04 0.04 0.04 0.05 0.07 0.12 0.16 0.18 0.17 0.16 0.13 0.10 0.07 0.04
0.02 0.03 0.02 0.02 0.01 0.01 0.02 0.02 0.01 0.01 0.02 0.02 0.02 0.02 0.03 0.04 0.05 0.05 0.04 0.06 0.05 0.03 0.04 0.08 0.10 0.10 0.10 0.11 0.11 0.11 0.11 0.09 0.07 0.07 0.07 0.05 0.05 0.05 0.06 0.07 0.09 0.15 0.19 0.19 0.17 0.14 0.11 0.08 0.05
0.03 0.03 0.03 0.02 0.01 0.02 0.02 0.03 0.02 0.01 0.01 0.02 0.01 0.02 0.02 0.02 0.03 0.03 0.04 0.06 0.05 0.03 0.03 0.07 0.09 0.09 0.10 0.09 0.10 0.10 0.10 0.10 0.09 0.07 0.08 0.07 0.05 0.05 0.06 0.08 0.10 0.14 0.18 0.19 0.19 0.17 0.15 0.12 0.08
0.02 0.03 0.03 0.03 0.03 0.03 0.03 0.03 0.02 0.01 0.01 0.01 0.02 0.02 0.02 0.03 0.03 0.03 0.03 0.03 0.03 0.02 0.03 0.06 0.10 0.09 0.08 0.07 0.08 0.09 0.10 0.10 0.10 0.09 0.08 0.08 0.07 0.05 0.05 0.07 0.09 0.11 0.17 0.20 0.19 0.17 0.17 0.16 0.11
0.01 0.02 0.02 0.04 0.04 0.05 0.05 0.05 0.04 0.03 0.02 0.02 0.02 0.02 0.02 0.03 0.02 0.02 0.02 0.02 0.03 0.03 0.03 0.04 0.08 0.11 0.08 0.07 0.08 0.09 0.12 0.14 0.12 0.11 0.10 0.09 0.08 0.07 0.05 0.06 0.08 0.10 0.13 0.18 0.20 0.18 0.15 0.15 0.13
0.02 0.01 0.02 0.02 0.03 0.03 0.03 0.05 0.05 0.04 0.02 0.02 0.02 0.03 0.03 0.02 0.01 0.02 0.03 0.03 0.03 0.03 0.03 0.03 0.05 0.11 0.11 0.07 0.07 0.09 0.10 0.12 0.12 0.10 0.09 0.10 0.11 0.10 0.08 0.08 0.07 0.08 0.09 0.14 0.19 0.20 0.17 0.15 0.13
0.02 0.02 0.01 0.02 0.02 0.02 0.02 0.04 0.04 0.03 0.03 0.02 0.02 0.02 0.03 0.03 0.02 0.02 0.02 0.04 0.04 0.04 0.03 0.03 0.04 0.09 0.14 0.10 0.06 0.08 0.09 0.08 0.10 0.11 0.10 0.09 0.12 0.13 0.11 0.10 0.10 0.09 0.09 0.11 0.16 0.19 0.18 0.16 0.14
0.02 0.03 0.02 0.02 0.03 0.03 0.02 0.03 0.03 0.03 0.03 0.02 0.02 0.03 0.03 0.03 0.03 0.02 0.03 0.04 0.05 0.03 0.03 0.04 0.04 0.07 0.12 0.14 0.09 0.07 0.09 0.08 0.09 0.11 0.12 0.10 0.12 0.14 0.14 0.12 0.11 0.11 0.10 0.11 0.15 0.18 0.18 0.15 0.13
0.02 0.03 0.04 0.03 0.03 0.02 0.01 0.01 0.02 0.02 0.02 0.02 0.02 0.03 0.03 0.03 0.04 0.03 0.03 0.04 0.05 0.04 0.03 0.04 0.04 0.08 0.10 0.13 0.13 0.10 0.10 0.10 0.09 0.09 0.10 0.10 0.12 0.15 0.15 0.13 0.11 0.10 0.10 0.10 0.12 0.17 0.18 0.16 0.14
0.01 0.02 0.02 0.02 0.02 0.02 0.01 0.01 0.02 0.01 0.01 0.01 0.01 0.03 0.04 0.03 0.03 0.03 0.02 0.04 0.06 0.06 0.04 0.07 0.07 0.09 0.12 0.14 0.15 0.13 0.12 0.12 0.11 0.10 0.10 0.09 0.10 0.12 0.13 0.13 0.13 0.12 0.12 0.11 0.11 0.14 0.15 0.15 0.14
0.01 0.01 0.01 0.01 0.01 0.01 0.01 0.01 0.01 0.00 0.00 0.01 0.01 0.02 0.03 0.05 0.06 0.05 0.03 0.03 0.05 0.07 0.07 0.08 0.09 0.10 0.11 0.13 0.15 0.17 0.18 0.16 0.13 0.11 0.11 0.10 0.08 0.09 0.12 0.13 0.14 0.14 0.14 0.15 0.13 0.13 0.13 0.13 0.12
0.02 0.02 0.01 0.01 0.01 0.01 0.01 0.01 0.00 0.00 0.00 0.00 0.01 0.01 0.02 0.04 0.09 0.10 0.07 0.06 0.05 0.05 0.05 0.05 0.07 0.08 0.09 0.10 0.14 0.19 0.23 0.21 0.18 0.15 0.12 0.11 0.09 0.09 0.11 0.13 0.14 0.15 0.15 0.16 0.15 0.14 0.13 0.11 0.11
0.02 0.01 0.01 0.01 0.01 0.01 0.01 0.01 0.00 0.00 0.00 0.00 0.01 0.01 0.02 0.04 0.06 0.09 0.08 0.08 0.06 0.05 0.05 0.06 0.06 0.08 0.09 0.11 0.13 0.18 0.20 0.19 0.18 0.17 0.16 0.14 0.12 0.11 0.12 0.15 0.16 0.17 0.18 0.16 0.15 0.15 0.13 0.11 0.11
0.00 0.00 0.00 0.01 0.01 0.01 0.01 0.01 0.00 0.00 0.00 0.00 0.00 0.01 0.01 0.03 0.04 0.04 0.04 0.05 0.05 0.05 0.05 0.06 0.07 0.09 0.12 0.14 0.17 0.20 0.18 0.18 0.17 0.15 0.16 0.16 0.15 0.16 0.18 0.19 0.20 0.20 0.20 0.19 0.17 0.15 0.14 0.12 0.11
MSLP
1011.11 1011.63 1012.32 1013.06 1013.76 1014.29 1014.57 1014.58 1014.35 1013.97 1013.55 1013.20 1013.02 1013.01 1013.15 1013.35 1013.51 1013.52 1013.31 1012.87 1012.23 1011.49 1010.75 1010.12 1009.66 1009.39 1009.30 1009.31 1009.36 1009.39 1009.35 1009.25 1009.10 1008.95 1008.84 1008.80 1008.83 1008.91 1009.01 1009.11 1009.17 1009.20 1009.21 1009.25 1009.33 1009.48 1009.71 1010.02 1010.36
1011.43 1012.04 1012.78 1013.54 1014.20 1014.64 1014.82 1014.71 1014.37 1013.89 1013.40 1013.01 1012.81 1012.80 1012.95 1013.17 1013.36 1013.40 1013.23 1012.84 1012.26 1011.58 1010.91 1010.32 1009.90 1009.65 1009.54 1009.53 1009.54 1009.52 1009.44 1009.29 1009.12 1008.95 1008.82 1008.76 1008.76 1008.81 1008.88 1008.93 1008.95 1008.94 1008.93 1008.94 1009.02 1009.18 1009.43 1009.76 1010.13
1011.80 1012.47 1013.23 1013.97 1014.57 1014.94 1015.02 1014.83 1014.42 1013.88 1013.36 1012.96 1012.74 1012.72 1012.85 1013.06 1013.22 1013.26 1013.10 1012.75 1012.23 1011.64 1011.04 1010.53 1010.16 1009.94 1009.83 1009.79 1009.75 1009.66 1009.52 1009.32 1009.10 1008.89 1008.74 1008.65 1008.62 1008.64 1008.66 1008.66 1008.64 1008.59 1008.55 1008.55 1008.63 1008.80 1009.08 1009.44 1009.87
1012.22 1012.92 1013.66 1014.36 1014.89 1015.18 1015.19 1014.94 1014.50 1013.96 1013.44 1013.05 1012.83 1012.79 1012.88 1013.04 1013.16 1013.16 1012.99 1012.66 1012.21 1011.69 1011.20 1010.78 1010.47 1010.28 1010.16 1010.08 1009.96 1009.80 1009.57 1009.30 1009.02 1008.77 1008.59 1008.47 1008.41 1008.39 1008.38 1008.34 1008.27 1008.19 1008.12 1008.11 1008.19 1008.38 1008.69 1009.10 1009.57
1012.66 1013.36 1014.07 1014.69 1015.14 1015.36 1015.31 1015.04 1014.60 1014.10 1013.62 1013.26 1013.05 1012.99 1013.04 1013.13 1013.17 1013.12 1012.93 1012.62 1012.22 1011.79 1011.39 1011.05 1010.81 1010.65 1010.51 1010.37 1010.18 1009.92 1009.60 1009.25 1008.90 1008.61 1008.39 1008.25 1008.17 1008.12 1008.07 1008.00 1007.89 1007.78 1007.69 1007.66 1007.74 1007.95 1008.29 1008.73 1009.25
1013.11 1013.78 1014.43 1014.96 1015.32 1015.46 1015.38 1015.10 1014.70 1014.26 1013.85 1013.54 1013.36 1013.28 1013.28 1013.30 1013.27 1013.15 1012.93 1012.63 1012.28 1011.92 1011.61 1011.36 1011.18 1011.02 1010.86 1010.66 1010.37 1010.02 1009.60 1009.17 1008.76 1008.43 1008.18 1008.02 1007.92 1007.85 1007.78 1007.67 1007.53 1007.38 1007.26 1007.22 1007.29 1007.51 1007.87 1008.35 1008.90
1013.55 1014.16 1014.72 1015.15 1015.41 1015.48 1015.36 1015.09 1014.74 1014.38 1014.06 1013.82 1013.67 1013.59 1013.55 1013.50 1013.40 1013.22 1012.97 1012.67 1012.37 1012.09 1011.86 1011.68 1011.54 1011.39 1011.20 1010.93 1010.57 1010.12 1009.61 1009.11 1008.65 1008.28 1008.01 1007.83 1007.72 1007.62 1007.52 1007.37 1007.19 1007.00 1006.85 1006.79 1006.85 1007.07 1007.44 1007.94 1008.52
1013.94 1014.48 1014.93 1015.25 1015.41 1015.40 1015.24 1014.99 1014.70 1014.42 1014.18 1014.02 1013.91 1013.84 1013.77 1013.67 1013.50 1013.28 1013.01 1012.72 1012.46 1012.24 1012.08 1011.97 1011.87 1011.73 1011.52 1011.20 1010.76 1010.24 1009.67 1009.11 1008.60 1008.20 1007.91 1007.71 1007.56 1007.44 1007.29 1007.10 1006.87 1006.64 1006.45 1006.36 1006.40 1006.62 1007.00 1007.51 1008.12
1014.27 1014.72 1015.06 1015.26 1015.31 1015.22 1015.04 1014.80 1014.55 1014.34 1014.19 1014.09 1014.03 1013.97 1013.89 1013.75 1013.55 1013.29 1013.01 1012.74 1012.52 1012.36 1012.27 1012.21 1012.15 1012.03 1011.80 1011.45 1010.98 1010.41 1009.79 1009.19 1008.66 1008.22 1007.90 1007.66 1007.47 1007.29 1007.08 1006.83 1006.55 1006.26 1006.04 1005.92 1005.96 1006.17 1006.56 1007.09 1007.71
1014.52 1014.88 1015.11 1015.20 1015.15 1014.99 1014.77 1014.53 1014.32 1014.17 1014.08 1014.04 1014.01 1013.97 1013.88 1013.72 1013.50 1013.23 1012.95 1012.71 1012.53 1012.42 1012.39 1012.39 1012.36 1012.27 1012.06 1011.70 1011.21 1010.62 1009.99 1009.36 1008.80 1008.33 1007.96 1007.67 1007.42 1007.16 1006.88 1006.56 1006.21 1005.88 1005.62 1005.48 1005.51 1005.73 1006.13 1006.68 1007.33
1014.73 1014.99 1015.12 1015.10 1014.96 1014.74 1014.49 1014.24 1014.05 1013.94 1013.89 1013.88 1013.88 1013.85 1013.76 1013.60 1013.37 1013.10 1012.84 1012.62 1012.48 1012.43 1012.45 1012.49 1012.52 1012.46 1012.27 1011.93 1011.46 1010.87 1010.23 1009.59 1009.00 1008.49 1008.07 1007.70 1007.36 1007.03 1006.66 1006.26 1005.85 1005.48 1005.19 1005.05 1005.09 1005.32 1005.75 1006.32 1006.99
1014.90 1015.09 1015.13 1015.03 1014.83 1014.55 1014.26 1014.00 1013.81 1013.71 1013.67 1013.68 1013.69 1013.66 1013.58 1013.41 1013.19 1012.93 1012.69 1012.51 1012.41 1012.40 1012.46 1012.55 1012.61 1012.59 1012.43 1012.13 1011.68 1011.12 1010.49 1009.84 1009.22 1008.66 1008.17 1007.72 1007.29 1006.86 1006.40 1005.93 1005.48 1005.08 1004.78 1004.64 1004.70 1004.96 1005.41 1006.01 1006.70
1015.09 1015.21 1015.19 1015.04 1014.79 1014.47 1014.15 1013.88 1013.67 1013.55 1013.50 1013.50 1013.50 1013.47 1013.38 1013.23 1013.02 1012.78 1012.57 1012.41 1012.34 1012.35 1012.44 1012.56 1012.65 1012.66 1012.54 1012.27 1011.86 1011.32 1010.70 1010.05 1009.40 1008.79 1008.22 1007.68 1007.16 1006.64 1006.11 1005.58 1005.09 1004.68 1004.39 1004.27 1004.35 1004.64 1005.11 1005.73 1006.45
1015.32 1015.40 1015.35 1015.16 1014.89 1014.55 1014.21 1013.91 1013.67 1013.51 1013.43 1013.39 1013.37 1013.32 1013.23 1013.09 1012.90 1012.69 1012.50 1012.36 1012.30 1012.33 1012.42 1012.54 1012.64 1012.67 1012.58 1012.34 1011.96 1011.44 1010.83 1010.17 1009.49 1008.83 1008.18 1007.57 1006.96 1006.37 1005.78 1005.22 1004.71 1004.30 1004.02 1003.93 1004.03 1004.33 1004.82 1005.46 1006.18
1015.62 1015.67 1015.61 1015.42 1015.14 1014.80 1014.44 1014.10 1013.81 1013.60 1013.46 1013.37 1013.31 1013.25 1013.16 1013.02 1012.86 1012.68 1012.51 1012.38 1012.33 1012.34 1012.42 1012.52 1012.61 1012.63 1012.55 1012.32 1011.96 1011.46 1010.86 1010.19 1009.48 1008.77 1008.07 1007.38 1006.71 1006.06 1005.43 1004.84 1004.33 1003.92 1003.67 1003.58 1003.70 1004.01 1004.50 1005.12 1005.84
1015.97 1016.02 1015.96 1015.79 1015.53 1015.19 1014.81 1014.43 1014.08 1013.80 1013.58 1013.43 1013.32 1013.24 1013.14 1013.03 1012.89 1012.74 1012.60 1012.48 1012.41 1012.40 1012.44 1012.50 1012.55 1012.55 1012.45 1012.23 1011.87 1011.38 1010.79 1010.11 1009.38 1008.63 1007.88 1007.14 1006.42 1005.72 1005.06 1004.46 1003.94 1003.54 1003.28 1003.20 1003.31 1003.61 1004.08 1004.68 1005.38
1016.33 1016.40 1016.37 1016.24 1016.00 1015.67 1015.27 1014.84 1014.43 1014.06 1013.75 1013.52 1013.36 1013.25 1013.16 1013.07 1012.97 1012.85 1012.73 1012.62 1012.53 1012.48 1012.47 1012.47 1012.47 1012.42 1012.30 1012.07 1011.72 1011.24 1010.65 1009.98 1009.24 1008.46 1007.67 1006.88 1006.12 1005.38 1004.68 1004.06 1003.52 1003.10 1002.83 1002.73 1002.81 1003.08 1003.52 1004.09 1004.78
1016.66 1016.77 1016.79 1016.71 1016.51 1016.19 1015.77 1015.29 1014.78 1014.31 1013.91 1013.60 1013.38 1013.24 1013.15 1013.09 1013.04 1012.96 1012.87 1012.76 1012.66 1012.56 1012.49 1012.42 1012.36 1012.26 1012.11 1011.87 1011.52 1011.07 1010.50 1009.83 1009.09 1008.29 1007.47 1006.64 1005.82 1005.03 1004.29 1003.61 1003.03 1002.57 1002.26 1002.12 1002.16 1002.39 1002.79 1003.35 1004.02
1016.92 1017.09 1017.19 1017.18 1017.03 1016.72 1016.27 1015.72 1015.12 1014.53 1014.02 1013.61 1013.33 1013.16 1013.08 1013.06 1013.06 1013.03 1012.97 1012.88 1012.75 1012.62 1012.48 1012.35 1012.22 1012.08 1011.90 1011.66 1011.33 1010.90 1010.36 1009.71 1008.97 1008.17 1007.31 1006.44 1005.55 1004.69 1003.86 1003.11 1002.45 1001.92 1001.55 1001.35 1001.34 1001.53 1001.91 1002.46 1003.14
1017.10 1017.36 1017.56 1017.64 1017.54 1017.24 1016.76 1016.13 1015.42 1014.70 1014.06 1013.55 1013.20 1013.00 1012.93 1012.95 1013.00 1013.03 1013.01 1012.93 1012.79 1012.61 1012.42 1012.23 1012.04 1011.86 1011.67 1011.44 1011.14 1010.75 1010.25 1009.64 1008.92 1008.11 1007.22 1006.27 1005.31 1004.34 1003.41 1002.55 1001.78 1001.15 1000.69 1000.43 1000.37 1000.54 1000.91 1001.48 1002.20
1017.21 1017.60 1017.93 1018.11 1018.08 1017.80 1017.27 1016.55 1015.70 1014.84 1014.05 1013.42 1012.99 1012.76 1012.70 1012.76 1012.86 1012.94 1012.96 1012.90 1012.75 1012.54 1012.30 1012.05 1011.82 1011.62 1011.42 1011.21 1010.96 1010.63 1010.19 1009.62 1008.92 1008.10 1007.17 1006.15 1005.08 1003.99 1002.93 1001.92 1001.03 1000.29 999.74 999.40 999.32 999.47 999.87 1000.48 1001.27
1017.33 1017.88 1018.35 1018.65 1018.69 1018.41 1017.83 1016.99 1016.00 1014.97 1014.03 1013.27 1012.75 1012.47 1012.41 1012.50 1012.65 1012.79 1012.85 1012.80 1012.65 1012.41 1012.12 1011.83 1011.56 1011.34 1011.15 1010.97 1010.77 1010.50 1010.13 1009.61 1008.94 1008.11 1007.14 1006.04 1004.86 1003.64 1002.42 1001.27 1000.24 999.38 998.74 998.36 998.25 998.42 998.86 999.54 1000.41
1017.54 1018.27 1018.91 1019.32 1019.41 1019.13 1018.47 1017.50 1016.34 1015.13 1014.02 1013.12 1012.50 1012.18 1012.11 1012.21 1012.41 1012.59 1012.69 1012.66 1012.50 1012.23 1011.91 1011.57 1011.27 1011.03 1010.85 1010.71 1010.56 1010.36 1010.05 1009.59 1008.94 1008.11 1007.10 1005.93 1004.64 1003.29 1001.93 1000.64 999.48 998.52 997.80 997.38 997.27 997.47 997.97 998.73 999.68
1017.94 1018.84 1019.62 1020.14 1020.26 1019.93 1019.17 1018.05 1016.71 1015.32 1014.04 1013.00 1012.28 1011.90 1011.81 1011.94 1012.17 1012.39 1012.52 1012.50 1012.33 1012.04 1011.68 1011.30 1010.96 1010.71 1010.53 1010.41 1010.31 1010.16 1009.91 1009.50 1008.88 1008.06 1007.02 1005.79 1004.42 1002.96 1001.49 1000.08 998.82 997.77 997.01 996.56 996.46 996.70 997.26 998.09 999.11
1018.54 1019.59 1020.49 1021.05 1021.16 1020.76 1019.87 1018.59 1017.06 1015.48 1014.04 1012.88 1012.07 1011.65 1011.56 1011.70 1011.97 1012.23 1012.38 1012.37 1012.19 1011.87 1011.47 1011.04 1010.67 1010.38 1010.19 1010.08 1010.00 1009.90 1009.69 1009.32 1008.74 1007.93 1006.89 1005.63 1004.21 1002.69 1001.14 999.66 998.33 997.24 996.43 995.98 995.89 996.16 996.76 997.63 998.69
1019.30 1020.46 1021.40 1021.96 1022.00 1021.49 1020.44 1018.99 1017.29 1015.55 1013.98 1012.72 1011.86 1011.42 1011.34 1011.52 1011.82 1012.11 1012.29 1012.29 1012.10 1011.75 1011.31 1010.84 1010.42 1010.09 1009.87 1009.75 1009.67 1009.58 1009.40 1009.07 1008.52 1007.73 1006.71 1005.46 1004.03 1002.50 1000.93 999.42 998.06 996.94 996.13 995.67 995.58 995.86 996.47 997.35 998.41
1020.12 1021.29 1022.20 1022.68 1022.60 1021.93 1020.73 1019.11 1017.27 1015.42 1013.77 1012.48 1011.61 1011.19 1011.15 1011.37 1011.72 1012.06 1012.26 1012.27 1012.08 1011.71 1011.23 1010.71 1010.24 1009.86 1009.60 1009.44 1009.33 1009.23 1009.06 1008.74 1008.23 1007.48 1006.49 1005.28 1003.90 1002.40 1000.85 999.36 998.02 996.90 996.09 995.62 995.52 995.78 996.36 997.21 998.23
1020.79 1021.88 1022.68 1023.00 1022.76 1021.92 1020.56 1018.83 1016.90 1015.01 1013.37 1012.10 1011.30 1010.95 1010.98 1011.28 1011.70 1012.08 1012.31 1012.34 1012.14 1011.75 1011.24 1010.68 1010.15 1009.72 1009.39 1009.17 1009.03 1008.89 1008.70 1008.38 1007.89 1007.19 1006.26 1005.12 1003.81 1002.39 1000.92 999.48 998.18 997.09 996.27 995.79 995.65 995.86 996.38 997.16 998.10
1021.09 1022.03 1022.62 1022.74 1022.30 1021.30 1019.83 1018.03 1016.11 1014.28 1012.73 1011.59 1010.92 1010.70 1010.85 1011.24 1011.72 1012.16 1012.42 1012.46 1012.27 1011.86 1011.33 1010.73 1010.16 1009.66 1009.27 1008.98 1008.76 1008.57 1008.34 1008.02 1007.54 1006.88 1006.02 1004.98 1003.78 1002.46 1001.09 999.74 998.50 997.43 996.61 996.09 995.89 996.01 996.44 997.12 997.96
1020.87 1021.57 1021.91 1021.80 1021.16 1020.04 1018.52 1016.76 1014.94 1013.27 1011.92 1010.98 1010.51 1010.47 1010.76 1011.26 1011.81 1012.29 1012.57 1012.62 1012.43 1012.02 1011.46 1010.84 1010.23 1009.67 1009.21 1008.85 1008.56 1008.29 1008.01 1007.66 1007.18 1006.57 1005.79 1004.84 1003.76 1002.57 1001.31 1000.06 998.88 997.84 997.00 996.42 996.14 996.15 996.46 997.02 997.76
Thickness
5709 5710 5709 5702 5685 5673 5677 5687 5694 5700 5706 5714 5719 5720 5719 5719 5719 5719 5734 5744 5749 5754 5757 5760 5761 5762 5762 5762 5761 5761 5760 5759 5759 5758 5758 5757 5756 5755 5754 5753 5752 5751 5749 5748 5747 5745 5744 5742 5740
5703 5704 5698 5686 5672 5667 5676 5685 5690 5697 5704 5709 5714 5716 5714 5715 5722 5725 5730 5738 5743 5747 5750 5752 5754 5756 5756 5756 5756 5756 5755 5755 5754 5754 5753 5752 5752 5751 5750 5749 5748 5746 5745 5744 5742 5741 5739 5738 5736
5698 5696 5684 5672 5666 5666 5678 5685 5688 5694 5699 5701 5702 5705 5705 5708 5714 5718 5724 5730 5736 5740 5743 5745 5747 5749 5750 5750 5750 5750 5750 5750 5749 5749 5748 5748 5747 5746 5745 5744 5743 5742 5741 5739 5738 5736 5735 5733 5731
5688 5680 5671 5664 5666 5669 5674 5679 5682 5685 5690 5692 5692 5692 5697 5705 5707 5712 5719 5724 5728 5732 5735 5738 5740 5742 5743 5744 5744 5744 5745 5745 5745 5744 5743 5743 5743 5742 5741 5740 5739 5737 5736 5735 5733 5731 5730 5728 5727
5676 5666 5658 5654 5659 5665 5669 5672 5675 5674 5676 5679 5680 5680 5686 5697 5702 5706 5710 5715 5719 5722 5726 5729 5732 5734 5736 5737 5738 5738 5738 5739 5739 5739 5739 5739 5738 5737 5736 5735 5734 5733 5732 5730 5728 5727 5725 5724 5722
5658 5652 5644 5646 5652 5658 5661 5663 5666 5664 5665 5669 5670 5671 5680 5689 5693 5697 5701 5705 5709 5712 5717 5720 5723 5725 5728 5729 5731 5732 5732 5732 5733 5733 5734 5734 5733 5732 5731 5730 5729 5728 5727 5726 5724 5722 5720 5719 5718
5647 5641 5639 5641 5641 5647 5653 5655 5654 5653 5655 5659 5662 5662 5671 5678 5683 5687 5691 5694 5698 5702 5706 5710 5714 5717 5719 5721 5723 5725 5725 5726 5726 5727 5727 5728 5727 5727 5726 5725 5725 5724 5723 5722 5720 5718 5716 5715 5713
5640 5632 5631 5630 5632 5638 5642 5644 5646 5644 5647 5652 5654 5652 5658 5667 5672 5676 5680 5683 5686 5691 5695 5699 5704 5708 5711 5713 5715 5717 5718 5719 5719 5720 5721 5721 5721 5721 5720 5720 5720 5719 5718 5717 5715 5713 5711 5710 5708
5634 5620 5619 5624 5626 5630 5632 5631 5633 5636 5636 5640 5644 5647 5652 5657 5660 5662 5666 5669 5674 5679 5684 5688 5692 5697 5701 5704 5706 5708 5711 5712 5712 5712 5713 5714 5714 5714 5714 5714 5714 5714 5713 5711 5710 5708 5706 5704 5703
5620 5611 5618 5623 5621 5620 5620 5619 5620 5621 5622 5626 5631 5637 5641 5644 5646 5648 5651 5655 5661 5666 5672 5677 5681 5686 5691 5694 5697 5699 5702 5703 5704 5705 5705 5706 5707 5707 5708 5707 5707 5708 5707 5706 5704 5703 5701 5699 5697
5614 5609 5612 5613 5612 5611 5609 5610 5610 5608 5610 5616 5619 5625 5628 5631 5633 5636 5640 5643 5648 5654 5660 5665 5670 5675 5679 5684 5687 5689 5692 5694 5695 5697 5697 5698 5698 5699 5700 5700 5700 5701 5700 5699 5698 5697 5695 5693 5691
5604 5605 5604 5603 5603 5600 5599 5599 5599 5598 5604 5610 5612 5614 5616 5618 5621 5624 5628 5633 5637 5642 5648 5653 5659 5664 5668 5673 5676 5679 5682 5685 5686 5687 5689 5689 5690 5691 5692 5692 5693 5694 5694 5693 5692 5690 5689 5687 5685
5594 5594 5594 5593 5590 5589 5588 5589 5588 5593 5598 5599 5602 5604 5605 5607 5610 5614 5617 5621 5625 5631 5637 5643 5648 5653 5657 5661 5665 5669 5672 5675 5677 5678 5679 5681 5682 5682 5683 5684 5685 5686 5687 5686 5685 5684 5682 5681 5680
5586 5584 5582 5582 5582 5581 5579 5582 5580 5590 5591 5591 5593 5594 5595 5596 5599 5602 5605 5609 5614 5619 5626 5632 5636 5643 5647 5650 5654 5657 5661 5665 5667 5669 5670 5671 5673 5674 5675 5676 5677 5678 5680 5680 5679 5678 5677 5675 5674
5577 5573 5575 5576 5575 5573 5571 5574 5578 5582 5580 5580 5581 5583 5586 5587 5589 5591 5595 5599 5603 5608 5614 5620 5626 5632 5637 5640 5643 5647 5650 5654 5656 5658 5660 5662 5663 5665 5666 5668 5669 5670 5672 5672 5672 5672 5670 5669 5668
5567 5561 5562 5570 5567 5567 5559 5562 5576 5573 5569 5569 5571 5573 5575 5579 5581 5584 5586 5590 5594 5597 5603 5609 5615 5619 5624 5628 5632 5636 5639 5642 5644 5647 5649 5651 5653 5655 5657 5659 5660 5662 5663 5664 5665 5665 5663 5663 5661
5552 5547 5549 5555 5561 5558 5551 5553 5567 5564 5561 5560 5561 5563 5566 5569 5574 5577 5578 5581 5584 5587 5592 5598 5602 5606 5611 5616 5619 5623 5626 5629 5632 5634 5637 5639 5641 5644 5647 5649 5651 5653 5654 5655 5657 5657 5657 5656 5654
5548 5541 5541 5542 5551 5549 5543 5547 5560 5558 5555 5551 5552 5554 5557 5561 5566 5570 5572 5575 5576 5579 5581 5585 5590 5593 5598 5603 5606 5609 5613 5615 5618 5621 5624 5627 5629 5632 5635 5638 5642 5644 5645 5647 5649 5650 5650 5650 5649
5546 5538 5534 5540 5546 5541 5541 5545 5554 5553 5547 5546 5546 5546 5549 5554 5559 5562 5564 5565 5567 5568 5570 5574 5577 5581 5584 5589 5592 5595 5599 5602 5605 5608 5612 5615 5617 5620 5624 5627 5631 5634 5637 5640 5641 5642 5641 5641 5640
5541 5535 5533 5539 5542 5540 5537 5541 5547 5546 5545 5545 5543 5541 5543 5547 5551 5554 5555 5555 5556 5558 5560 5563 5566 5569 5572 5577 5581 5583 5587 5590 5593 5597 5600 5602 5605 5608 5612 5616 5621 5624 5627 5630 5633 5634 5634 5634 5634
5544 5536 5535 5534 5534 5532 5528 5543 5546 5546 5542 5541 5539 5537 5536 5538 5541 5545 5547 5548 5548 5548 5551 5555 5557 5561 5563 5566 5569 5571 5573 5576 5579 5583 5588 5592 5595 5598 5602 5606 5611 5615 5618 5622 5625 5627 5628 5628 5626
5542 5544 5538 5532 5520 5516 5517 5519 5535 5535 5534 5538 5537 5533 5532 5532 5534 5537 5539 5540 5541 5542 5543 5545 5548 5552 5555 5557 5559 5560 5562 5565 5570 5573 5578 5582 5585 5589 5593 5597 5601 5605 5610 5615 5618 5620 5622 5623 5621
5539 5539 5531 5526 5515 5505 5507 5501 5524 5525 5529 5535 5534 5530 5528 5527 5526 5529 5531 5534 5535 5535 5536 5539 5542 5545 5547 5548 5550 5551 5553 5556 5559 5562 5567 5572 5576 5580 5585 5588 5591 5596 5602 5607 5610 5613 5615 5617 5619
5536 5529 5524 5511 5501 5502 5506 5497 5512 5516 5524 5529 5530 5526 5523 5522 5521 5523 5526 5528 5529 5530 5531 5533 5534 5537 5539 5540 5542 5544 5546 5548 5550 5554 5558 5563 5567 5572 5576 5580 5583 5588 5594 5599 5603 5606 5609 5612 5613
5525 5514 5508 5503 5490 5500 5502 5496 5509 5522 5521 5521 5521 5520 5518 5516 5516 5517 5520 5522 5523 5524 5525 5526 5528 5530 5532 5533 5536 5538 5540 5542 5544 5548 5552 5556 5560 5564 5569 5573 5576 5580 5586 5592 5596 5599 5602 5605 5608
5518 5509 5495 5492 5483 5492 5494 5494 5515 5523 5521 5517 5514 5512 5511 5511 5511 5512 5513 5514 5515 5517 5519 5520 5522 5524 5526 5528 5529 5532 5534 5537 5539 5542 5546 5549 5554 5560 5564 5567 5570 5575 5579 5585 5589 5593 5596 5599 5602
5512 5498 5494 5476 5466 5466 5482 5489 5508 5523 5519 5516 5512 5509 5507 5506 5507 5506 5507 5508 5510 5511 5513 5514 5515 5518 5520 5521 5523 5526 5529 5531 5534 5537 5540 5544 5549 5553 5557 5561 5565 5569 5573 5578 5582 5586 5589 5592 5595
5509 5494 5475 5468 5464 5468 5481 5482 5497 5510 5512 5511 5507 5503 5502 5502 5502 5501 5502 5502 5504 5505 5506 5507 5508 5510 5512 5514 5517 5522 5524 5526 5530 5532 5534 5538 5543 5547 5550 5555 5559 5563 5567 5572 5576 5580 5583 5586 5590
5497 5490 5479 5461 5458 5458 5463 5495 5509 5503 5505 5501 5499 5497 5495 5495 5495 5495 5496 5496 5497 5498 5499 5499 5501 5503 5506 5510 5513 5516 5519 5522 5525 5528 5530 5533 5536 5540 5544 5549 5553 5559 5563 5568 5572 5576 5579 5582 5585
5496 5488 5473 5464 5455 5445 5451 5490 5514 5504 5499 5495 5493 5493 5492 5491 5490 5490 5490 5489 5490 5491 5491 5492 5494 5497 5502 5505 5509 5511 5514 5518 5520 5522 5525 5527 5530 5534 5539 5543 5548 5554 5559 5563 5567 5571 5575 5578 5581